Regional Weather Roundup
Issued by NWS Green Bay, WI

Home | Current Version | Previous Version | Graphics & Text | Print | Product List | Glossary Off
Versions: 1 2 3 4 5 6 7 8 9 10 11 12 13 14 15 16 17 18 19 20 21 22 23 24 25 26 27 28 29 30 31 32 33 34 35 36 37 38 39 40 41 42 43 44 45 46 47 48 49 50

220
ASUS43 KGRB 090511
RWRGRB

NORTH-CENTRAL AND NORTHEAST WISCONSIN REGIONAL WEATHER ROUNDUP
NATIONAL WEATHER SERVICE GREEN BAY WI
1100 PM CST THU DEC 08 2016

WIZ005-009-010>012-018-019-090600-
NORTH CENTRAL WISCONSIN

CITY           SKY/WX    TMP DP  RH WIND       PRES   REMARKS
IRONWOOD       LGT SNOW  19  14  81 N12       30.34R WCI   7
MANITOWISH WTR LGT SNOW  16  15  93 W5        30.29R WCI   9
ARBOR VITAE    CLOUDY    19  14  79 NW9       30.29R WCI   8
EAGLE RIVER    CLOUDY    17  11  77 NW8       30.28R WCI   7
LAND O LAKES   PTCLDY    16  12  86 NW6       30.29R WCI   7
RHINELANDER    CLOUDY    19  15  84 W8        30.29R WCI   9
PHILLIPS       FLURRIES  18  14  84 NW6       30.33R
ANTIGO         MOCLDY    17  13  82 NW9G17    30.29R WCI   6
TOMAHAWK       CLOUDY    18  14  84 W7        30.32R WCI   9
MERRILL        MOCLDY    19  13  80 NW6       30.34R
$$

WIZ013-073-090600-
NORTHEAST WISCONSIN

CITY           SKY/WX    TMP DP  RH WIND       PRES   REMARKS
IRON MOUNTAIN  LGT SNOW  20  13  74 NW7       30.27R
MARINETTE      PTCLDY    23  17  78 VRB5      30.31R
OCONTO         CLOUDY    22  16  78 NW3       30.32R
$$

WIZ017-030-035>037-045-090600-
CENTRAL WISCONSIN

CITY           SKY/WX    TMP DP  RH WIND       PRES   REMARKS
MEDFORD        CLOUDY    18  12  76 W7        30.34R WCI   9
WAUSAU         CLEAR     19  12  74 W12       30.33R WCI   7
MOSINEE        CLEAR     19  14  79 W7        30.36R
MARSHFIELD     CLEAR     19  11  70 W10       30.35R WCI   7
WISC RAPIDS    PTCLDY    22  15  75 NW9       30.39R
STEVENS POINT  MOCLDY    20  13  74 W8        30.36R
WAUPACA        CLEAR     22  16  78 W5        30.37R
SHAWANO        CLEAR     24  16  71 W7        30.34R
CLINTONVILLE   PTCLDY    23  14  68 NW7       30.34R
WAUTOMA        FLURRIES  22  16  78 W7        30.39R
$$

WIZ038-039-048-051-090600-
FOX VALLEY

CITY           SKY/WX    TMP DP  RH WIND       PRES   REMARKS
NWS GREEN BAY  CLEAR     23  18  81 W8        30.34R
APPLETON       CLEAR     21  14  73 W10       30.32R
OSHKOSH        CLEAR     22  14  71 W10       30.35R
FOND DU LAC    CLOUDY    23  14  68 NW12      30.36R
$$

WIZ022-050-052-090600-
EAST CENTRAL WISCONSIN

CITY           SKY/WX    TMP DP  RH WIND       PRES   REMARKS
EPHRAIM        FAIR      25  14  62 NW10G21   30.26S
WASHINGTON ISL FAIR      25  15  64 NW13G24   30.26R
STURGEON BAY   MOCLDY    26  18  71 NW16      30.30R
MANITOWOC      CLEAR     24  18  77 MISG      30.33R
SHEBOYGAN      PTCLDY    23  16  74 NW12      30.33R
$$

LMZ563-521-522-541>543-090600-
LAKESHORE

STATION/POSITION TIME  TEMP    WIND        PRES    VSBY  WAVE
                       AIR SEA DIR/SP/G                  HT/PER
                 (UTC) (F)     (DEG/KT/KT) (MB)    (MI)  (FT/S)
SHEBOYGAN LKSHOR 0500   24     300/ 15/ 19 1027.9R
KEWAUNEE LKSHORE 0442   24     310/  4/  8 1025.6R
ALGOMA MARINA    0351          320/ 11/ 17   N/A
NORTHPORT PIER   0442   29     300/ 21     1024.7R
SISTER BAY LKSHO 0450   28     360/ 24/ 30   N/A
CHAMBERS ISLAND  0440   26     300/  8/ 12 1025.1R
MENOMINEE LKSHOR 0442   24     280/  8/ 12 1025.3R
$$




USA.gov is the U.S. government's official web portal to all federal, state and local government web resources and services.